sat.trackr.live / text

‹ back to catalog

TORO

NORAD 60530 · 2024-149BQ

PAYLOAD ACTIVE UNKNOWN

§ Identity

Operator
Country
ROC
Launch date
2024-08-16
Launch site
AFWTR
Launch vehicle
Mass (kg)
RCS (m²)

External: N2YO · Heavens-Above · Gunter

§ Orbital elements

Epoch: 2026-09-22T17:20:46.155552Z

Period
96.21 min
Inclination
97.6705°
Eccentricity
0.0001359
Mean motion
14.96707711 rev/d
Perigee alt
576.1 km
Apogee alt
578.0 km
Semi-major
6,955.2 km
B*
6.2784e-5
RAAN
338.5449°
Arg perigee
78.5658°
Mean anomaly
281.5716°
Rev number
11,454

§ Raw data

TORO1 60530U 24149BQ  26265.72275643  .00000660  00000+0  62784-4 0  99932 60530  97.6705 338.5449 0001359  78.5658 281.5716 14.96707711114541

JSON: /api/v1/satellites/60530 · /tle

For live sub-satellite position, see the globe view (requires WebGL).

§ Visibility from observer

Set your observer location to see the next 7 days of passes ≥ 10°. The values pass through the URL so the page stays shareable.

No JS? Fill the form by hand. The geolocation button needs JavaScript.

§ Radio — SatNOGS DB

ModeDescriptionDownlinkUplink
GMSK UHF 9k6 Telemetry 435.410 MHz

1 transmitter · refreshed weekly from db.satnogs.org